GFSMA_925_thetae_129.txt.gz
Theta_e
333 328 322 315 323 326 325 322 324 322 320 320 321 322 323 324 324 324 324 324 324 324 323 323 322 321 321 320 319 319 319 318 318 318 318 318 319 320 320 321 325 327 328
331 327 315 314 324 322 322 322 323 323 320 320 321 322 322 323 323 323 323 323 323 322 322 322 321 320 320 319 318 317 317 316 316 316 316 316 316 317 318 319 319 320 323
331 327 314 321 320 321 321 322 323 323 320 320 321 321 321 322 322 321 321 321 321 321 321 321 320 319 319 318 317 316 315 315 314 314 314 314 315 315 315 315 316 317 318
331 324 316 320 320 320 320 319 324 322 320 320 320 320 320 320 320 320 320 319 318 318 319 319 319 319 318 317 317 315 314 314 313 313 313 313 313 314 314 314 314 314 316
329 318 314 316 316 319 316 317 323 321 320 320 319 319 318 318 318 317 316 316 316 316 317 318 317 317 317 317 316 315 314 312 312 312 312 312 312 312 312 312 313 314 313
327 320 314 313 313 316 315 319 322 320 319 319 318 318 318 317 315 313 310 310 310 310 310 314 314 316 316 315 315 314 313 311 311 310 310 310 310 310 310 310 310 311 313
328 325 321 315 313 315 314 319 320 318 318 317 317 315 315 316 315 313 311 311 310 307 307 307 309 312 313 310 311 312 311 310 309 309 309 309 309 309 309 309 309 309 309
327 328 323 313 312 315 312 312 315 315 315 316 315 312 307 311 313 313 313 312 311 309 309 308 308 308 308 306 306 305 305 305 306 307 307 307 308 308 308 308 308 308 309
325 326 321 312 311 313 312 311 311 312 309 310 312 310 307 308 307 309 311 311 311 310 309 309 309 308 308 307 306 305 305 305 304 303 305 306 306 307 307 307 307 308 308
322 323 311 313 311 311 312 312 311 311 311 310 310 311 311 310 308 308 308 309 310 310 310 309 309 308 308 307 306 305 305 304 304 302 301 304 305 306 306 306 307 307 307
319 317 311 311 311 311 312 312 311 311 311 311 311 309 309 309 309 308 308 308 308 308 309 309 309 308 308 307 306 305 305 304 303 302 300 303 304 305 305 305 305 306 306
315 311 310 310 311 311 311 311 311 311 311 311 310 311 311 310 309 309 307 308 308 308 307 307 308 307 307 307 305 305 304 304 303 300 299 302 303 303 303 304 304 304 304
313 312 311 311 311 311 312 312 312 310 310 311 311 310 309 310 311 311 310 308 308 308 307 306 306 305 305 305 305 304 304 305 302 300 301 302 302 302 302 302 302 302 302
315 314 311 311 311 311 311 311 310 310 310 309 309 309 309 309 309 310 310 310 305 304 304 303 304 305 304 302 302 301 301 301 301 302 301 301 301 301 301 301 300 301 301
316 311 312 312 311 311 310 310 310 310 310 310 310 310 310 310 309 309 309 309 308 302 301 301 301 301 301 300 300 300 300 301 299 299 299 298 300 299 299 299 300 301 301
312 312 312 311 311 311 311 311 312 311 311 311 311 311 311 310 309 308 307 306 305 305 303 301 301 300 299 298 298 298 298 298 297 297 297 297 298 298 298 299 299 299 299
313 311 310 310 310 310 309 309 309 310 310 310 309 308 308 307 306 304 302 301 302 300 299 298 298 298 298 297 297 297 297 297 297 297 297 298 299 298 298 299 297 298 298
312 311 310 309 309 309 309 310 310 309 308 307 306 306 306 303 301 301 301 299 298 298 298 297 297 298 298 297 297 297 297 297 296 297 297 298 298 298 298 298 298 297 297
311 311 311 309 308 307 307 306 306 305 304 303 302 301 301 301 299 298 298 298 298 298 298 297 297 297 296 296 296 296 296 296 296 296 295 295 296 297 298 298 298 297 297
308 307 307 307 307 306 306 306 306 306 304 303 301 299 298 298 298 297 297 298 298 298 297 296 296 295 295 295 294 294 293 293 293 293 293 293 295 294 295 295 295 296 297
307 304 301 299 298 299 298 298 298 298 298 298 298 298 299 299 299 299 298 298 297 296 296 295 294 294 294 294 293 293 293 294 294 294 294 294 294 294 295 294 294 295 295
299 299 299 298 298 298 295 296 297 298 297 297 297 298 299 299 298 297 297 297 296 295 295 294 294 293 292 292 292 293 293 293 293 294 294 294 293 294 294 294 294 294 296
297 297 297 296 297 298 297 293 292 293 294 294 294 294 294 294 294 294 295 295 294 294 294 294 293 292 293 293 294 294 294 294 293 293 294 293 293 293 294 294 294 294 296
296 296 296 295 295 297 296 294 291 292 292 292 292 292 292 292 292 294 293 293 293 293 293 294 294 295 295 295 294 293 293 293 292 292 292 293 293 293 293 293 293 294 294
295 295 294 293 294 295 295 293 291 291 291 291 291 291 292 291 291 294 294 293 293 293 293 293 293 293 292 291 291 291 290 291 291 291 291 292 293 293 293 293 293 293 293
294 293 293 292 293 294 294 293 291 290 291 291 291 291 290 292 294 295 296 295 293 292 292 291 290 289 288 288 289 288 288 289 289 289 291 290 291 291 293 293 293 292 292

GFSMA_925_thetae_132.txt.gz
Theta_e
334 331 330 325 330 329 327 324 322 320 321 322 323 324 324 324 324 325 325 325 324 324 324 323 322 321 321 320 319 319 318 318 318 318 318 318 319 319 320 320 321 323 326
334 329 327 324 329 327 325 324 321 319 321 321 323 323 324 324 323 323 323 323 323 323 323 322 321 320 320 319 318 317 317 317 316 316 317 317 317 317 317 317 318 319 320
332 327 321 323 327 324 322 323 321 319 320 322 322 322 323 323 322 323 322 321 321 321 321 321 320 320 319 318 317 317 316 316 316 315 315 315 315 315 315 316 315 316 316
331 326 315 323 323 321 322 322 322 320 320 321 321 322 321 321 321 321 320 320 319 319 319 320 320 319 318 318 316 315 315 315 315 314 314 314 314 314 313 313 314 315 314
331 326 315 322 320 320 321 323 322 320 320 321 321 321 321 320 320 319 318 317 318 318 318 318 318 318 318 317 316 315 314 313 313 313 312 312 312 312 312 312 312 312 313
332 327 318 321 318 319 319 323 322 320 320 320 320 319 319 319 318 317 316 315 315 316 316 314 315 316 316 316 315 314 313 312 311 311 311 311 311 311 311 311 311 311 311
332 325 318 318 316 318 316 322 321 319 319 319 318 316 316 316 316 314 311 311 311 309 310 312 311 312 311 309 310 311 312 311 310 310 309 310 310 310 310 310 310 310 310
330 325 314 315 314 315 316 320 321 318 317 317 315 313 309 312 314 313 312 311 310 308 308 307 308 309 309 306 306 305 305 308 309 308 308 308 309 309 309 309 309 309 310
330 325 319 314 313 314 315 320 321 318 316 316 315 310 305 308 308 311 313 312 311 310 308 309 308 308 308 307 306 305 305 304 305 306 306 307 307 308 308 308 308 309 309
324 327 325 320 312 314 313 318 319 317 317 314 312 310 310 309 308 308 308 310 311 311 310 309 309 309 308 308 307 305 305 304 304 303 303 305 306 306 307 307 307 307 307
319 327 326 319 310 311 312 312 314 314 315 315 311 309 309 309 309 308 308 307 308 309 309 309 309 309 308 308 307 306 304 304 303 303 301 302 304 305 306 306 306 305 305
321 320 318 312 310 309 311 311 311 311 310 310 310 310 309 309 309 308 307 307 308 308 308 307 307 308 308 307 307 306 304 304 305 303 300 300 303 304 304 304 304 304 303
322 323 321 314 310 309 310 310 310 311 310 310 310 310 310 311 311 310 310 308 308 307 308 307 306 305 305 305 306 304 304 303 305 303 301 302 302 303 302 302 302 302 302
313 311 310 310 310 310 310 311 311 310 311 310 310 310 309 309 309 310 310 309 307 306 305 303 303 304 303 303 302 302 302 302 304 303 303 301 301 301 300 301 301 301 300
315 315 312 311 311 311 311 310 310 309 309 309 309 310 310 310 310 310 310 309 308 306 304 300 300 301 301 300 300 299 299 299 298 298 298 299 299 299 299 299 299 300 300
313 312 311 310 310 310 310 310 310 310 310 310 310 310 311 311 311 309 309 308 307 305 304 301 300 300 299 298 298 298 297 297 297 297 299 299 299 299 300 299 299 299 299
313 313 312 312 311 311 310 310 311 311 311 311 311 310 310 309 307 304 304 303 303 303 301 299 298 298 298 297 297 297 297 297 297 297 296 298 299 299 299 299 299 299 298
311 311 310 310 310 310 309 309 309 310 309 309 307 307 306 304 303 301 301 301 300 298 298 297 297 297 297 297 296 296 296 296 296 296 296 297 298 297 297 298 299 299 298
311 309 309 309 309 309 309 308 307 307 306 306 305 306 305 302 301 300 299 298 298 297 297 297 297 296 296 296 295 295 294 293 293 293 293 293 295 295 296 296 297 296 297
310 309 308 307 307 307 307 306 305 304 303 302 301 301 300 300 299 298 297 297 297 298 297 297 296 295 295 294 294 293 292 292 293 293 294 294 294 294 294 295 295 296 296
307 306 304 302 301 301 300 301 302 301 301 299 298 298 298 298 298 298 298 298 297 297 296 295 294 294 293 293 292 292 292 292 293 294 294 293 293 293 293 293 294 294 294
300 299 298 298 298 297 297 298 298 298 298 298 298 299 300 301 299 299 298 296 296 295 295 294 293 293 292 292 293 293 293 293 294 294 293 293 292 292 292 292 293 295 295
298 298 297 297 297 297 295 293 293 295 296 296 296 296 296 296 295 295 297 296 294 294 294 294 293 292 294 295 294 294 294 293 294 294 292 291 291 292 292 293 293 293 295
296 296 295 296 296 296 295 292 291 292 292 292 293 293 293 292 292 293 293 293 292 292 293 294 295 295 294 294 292 291 292 291 290 290 290 290 291 292 292 292 292 293 292
295 295 294 295 295 295 294 291 291 291 291 291 291 291 291 291 291 295 294 293 293 293 292 293 292 291 291 291 290 290 289 288 289 289 288 290 291 290 290 291 292 293 292
294 294 293 293 294 295 294 292 290 290 291 291 291 290 290 293 294 296 295 295 293 292 292 291 291 290 288 288 288 288 288 288 288 288 290 288 289 289 289 289 291 290 290

GFSMA_925_thetae_138.txt.gz
Theta_e
334 331 334 336 335 332 331 327 326 326 326 326 326 324 324 325 325 325 326 325 325 325 324 324 323 322 322 321 321 321 321 321 320 320 320 320 320 320 320 320 320 321 323
335 332 332 334 334 332 327 325 323 324 325 324 323 324 324 325 324 324 324 324 324 324 324 323 322 322 321 321 321 320 320 320 320 319 319 318 318 318 318 318 319 319 319
336 331 330 332 331 329 325 323 321 322 323 323 323 323 323 323 323 323 323 323 323 323 323 322 321 321 320 320 319 319 319 319 318 318 318 317 317 317 317 317 317 317 318
335 331 328 330 329 327 325 323 321 322 323 323 322 322 322 322 322 322 322 322 321 320 321 321 321 320 319 319 318 318 317 317 317 317 317 316 316 316 316 316 316 316 316
333 329 327 329 327 326 325 323 322 321 322 322 322 321 321 320 320 319 319 320 321 320 320 319 320 319 319 318 317 317 316 316 316 315 315 315 315 315 315 315 315 315 314
332 327 326 326 325 325 324 324 322 321 321 321 320 320 320 319 318 317 317 317 319 318 318 318 318 317 317 316 317 316 316 315 314 314 314 314 314 314 314 314 314 314 313
330 325 325 324 324 325 324 324 323 322 321 320 319 319 318 317 317 317 316 315 316 316 316 317 316 316 315 309 312 314 314 314 313 313 313 312 313 313 313 313 312 312 312
329 323 322 322 323 324 324 324 322 322 321 318 318 317 318 316 315 314 314 314 314 313 314 314 314 315 313 312 309 305 307 311 311 311 311 311 311 311 311 311 311 311 310
329 322 319 321 321 323 323 323 323 322 320 319 318 317 318 318 316 315 314 313 313 311 311 311 311 312 313 311 309 307 305 305 308 309 309 309 309 309 310 310 310 309 309
329 323 319 320 319 322 323 323 323 322 320 319 317 314 315 316 317 317 314 314 313 313 311 310 310 311 311 312 310 308 306 305 305 304 305 307 307 308 308 309 308 308 307
326 322 317 316 317 319 321 323 323 323 321 319 317 315 314 313 314 314 316 314 312 310 310 310 310 311 311 311 311 310 307 305 305 304 304 304 305 306 307 307 306 306 305
325 324 316 316 314 315 318 320 321 322 322 321 318 317 314 314 313 313 314 314 313 308 308 307 308 307 308 308 308 308 307 305 305 305 305 303 304 305 305 305 304 303 303
323 322 317 316 314 312 312 317 319 321 321 321 318 317 314 313 313 313 313 312 311 308 307 307 307 305 306 306 305 306 306 304 304 308 306 304 305 304 303 302 302 302 303
322 323 322 318 315 314 310 313 317 318 319 319 318 315 314 313 313 313 313 312 313 311 306 306 303 304 305 304 304 303 304 304 307 307 304 301 301 301 301 301 302 302 302
318 317 319 317 317 311 309 310 313 314 315 315 315 314 312 311 310 311 310 310 312 314 313 304 301 301 301 301 300 299 299 299 298 298 298 298 300 301 301 301 302 302 301
317 315 314 314 313 311 310 309 310 310 311 311 310 310 309 310 310 310 310 311 311 310 311 301 300 299 299 298 298 299 298 298 298 297 297 297 299 300 301 301 301 300 299
313 313 313 314 312 311 310 309 309 309 309 309 310 310 310 310 311 311 309 308 308 307 305 299 299 298 298 299 299 299 298 298 298 297 296 297 298 299 299 299 298 298 298
312 312 311 311 311 311 311 311 310 310 311 310 310 310 310 309 307 305 305 304 302 302 301 299 297 297 298 298 298 298 297 296 295 295 295 296 296 296 296 297 297 298 298
310 310 310 310 310 309 310 310 310 310 310 310 309 308 308 306 303 301 301 300 299 298 298 298 299 298 298 298 297 296 295 295 294 294 294 295 296 296 296 296 296 296 296
309 308 310 309 309 309 310 310 309 309 308 306 305 305 304 302 301 299 298 298 298 298 298 299 298 298 297 296 295 295 295 296 296 296 296 295 295 295 295 295 295 295 294
308 307 306 305 305 305 305 305 304 303 302 301 300 300 299 299 298 298 297 298 298 299 298 298 298 297 296 296 295 296 296 296 297 297 296 296 295 295 295 295 295 295 295
302 302 301 301 300 301 303 303 302 300 299 299 300 301 302 302 301 299 298 298 298 298 298 297 296 296 295 296 296 295 295 296 297 296 295 294 294 294 294 294 294 294 295
302 301 300 300 300 299 298 298 298 298 298 299 299 299 298 298 299 301 300 298 296 295 294 295 295 296 295 295 294 294 295 295 295 294 293 294 293 294 294 293 293 292 293
300 300 299 299 298 297 294 293 294 295 296 296 296 296 296 296 296 296 296 295 294 294 295 295 295 294 293 293 293 293 293 293 293 293 292 293 292 293 292 292 292 292 293
299 298 297 297 297 296 293 292 293 294 294 294 294 294 294 294 292 295 295 295 295 295 295 293 292 291 291 290 291 291 293 293 294 293 292 291 291 291 290 291 292 291 291
297 297 297 296 296 295 293 291 293 293 293 293 293 293 291 295 295 296 296 295 296 294 293 292 292 291 290 290 289 290 291 292 291 292 291 290 290 289 289 291 291 290 290

GFSMA_925_thetae_141.txt.gz
Theta_e
331 332 337 336 337 336 332 329 327 327 326 326 327 325 325 325 326 325 324 325 325 325 325 324 324 324 323 323 323 323 322 322 321 321 321 320 320 320 320 320 321 321 322
321 331 333 335 334 332 329 326 325 325 326 325 324 324 325 325 325 324 325 324 324 324 324 324 323 323 323 322 322 322 321 321 320 320 320 320 320 319 319 319 319 318 319
323 331 332 334 334 331 327 324 324 324 324 324 324 324 324 324 324 324 324 324 323 323 323 323 322 322 321 321 321 320 320 320 319 319 318 318 318 318 318 318 318 318 318
333 333 332 334 332 329 325 322 322 323 323 323 323 323 323 323 323 323 322 322 321 322 321 321 321 321 320 320 319 319 319 318 318 318 318 317 317 317 317 317 317 316 317
333 332 331 332 331 326 324 322 322 323 323 323 322 322 322 321 321 321 322 322 321 321 321 320 319 320 320 319 319 318 318 317 317 317 316 316 316 316 316 315 315 315 315
333 332 330 330 328 326 325 323 322 322 322 322 321 321 321 320 319 319 319 320 322 320 318 318 318 318 318 318 318 317 316 316 316 315 315 315 315 315 315 314 314 313 313
332 329 329 328 327 326 325 324 322 321 322 320 320 320 319 319 318 318 317 317 317 317 318 318 318 317 311 310 315 316 315 315 314 314 314 314 314 313 313 313 312 312 311
329 328 327 326 326 326 326 324 322 322 321 320 320 318 319 317 317 316 316 315 316 315 315 315 316 315 314 313 307 306 310 313 312 312 312 312 312 312 312 312 311 310 310
327 326 325 325 326 326 326 325 323 323 321 319 318 318 319 318 316 316 315 315 314 313 313 313 313 313 314 313 310 309 306 306 308 309 310 310 310 310 310 310 310 309 308
328 326 323 323 324 325 325 325 324 323 321 320 319 318 317 317 318 318 315 314 314 313 312 312 311 312 313 313 312 311 309 306 305 305 306 307 308 308 309 309 308 308 306
327 321 320 320 323 324 325 325 324 323 322 321 320 318 316 315 316 317 318 315 314 314 313 312 311 312 312 312 312 312 311 307 305 305 304 304 306 307 308 307 307 306 305
327 322 320 320 320 322 324 325 325 324 323 322 319 318 316 316 314 314 315 316 315 313 311 310 309 308 308 308 308 309 309 307 306 306 305 305 306 306 306 305 305 304 304
324 319 318 317 317 319 320 322 323 324 324 323 321 319 317 316 315 314 315 314 313 310 309 306 307 307 307 307 307 307 307 306 305 308 307 306 306 305 303 303 303 303 304
321 321 316 314 313 313 313 317 320 322 323 323 322 319 317 315 314 314 314 314 314 313 309 309 304 305 305 305 305 305 305 305 306 308 306 302 300 302 302 302 303 303 303
321 322 321 318 317 317 315 312 317 320 320 321 321 318 316 314 313 313 312 312 312 313 313 306 305 303 302 302 301 301 302 299 299 298 298 297 297 300 301 302 302 302 302
319 318 318 317 317 317 312 311 313 314 315 316 315 315 312 310 310 310 311 311 311 311 312 305 301 300 300 300 299 300 300 299 300 299 298 296 298 300 300 301 301 300 300
314 315 315 316 314 311 310 310 310 310 311 311 311 310 310 310 311 311 311 311 311 309 308 300 300 299 299 300 300 299 299 299 298 298 297 297 297 298 298 298 298 298 299
312 311 311 311 310 311 311 311 310 310 310 310 310 311 311 311 311 311 311 308 305 303 303 299 298 298 299 298 298 299 298 297 296 295 295 296 296 297 297 298 298 297 297
311 311 311 311 310 309 309 310 310 310 310 311 311 311 311 310 308 304 302 300 299 299 299 299 298 298 299 299 298 296 296 295 296 296 296 296 296 296 297 297 297 296 296
310 308 309 310 310 309 309 309 308 308 308 308 308 308 307 304 302 301 300 299 298 298 299 299 299 299 298 298 296 296 296 297 297 297 297 297 297 297 297 296 296 296 295
305 304 307 308 309 309 308 308 308 307 306 305 304 304 302 301 300 299 298 298 298 299 299 299 299 298 297 297 296 297 297 297 297 297 297 296 296 295 295 295 295 295 294
303 303 303 303 303 303 303 304 303 302 300 299 299 299 299 301 301 300 300 300 299 299 299 298 297 297 297 296 297 295 296 297 297 297 295 295 295 295 295 295 294 294 294
304 303 303 302 301 301 301 301 301 300 300 301 301 301 301 301 302 300 300 298 297 295 296 296 297 297 297 295 294 294 295 296 296 295 294 294 294 294 294 293 294 293 293
303 302 302 301 300 299 298 298 299 299 299 299 299 299 299 299 298 299 299 298 296 295 296 296 295 294 294 294 294 293 294 294 294 295 293 294 294 293 292 292 293 292 292
301 300 299 299 298 296 294 293 296 296 296 296 296 296 296 296 295 294 296 296 296 296 295 294 293 292 292 291 291 291 293 293 295 294 293 291 292 291 291 293 293 292 291
299 298 298 298 297 295 292 293 294 295 295 294 294 294 293 295 294 296 296 296 296 295 294 293 292 292 292 292 290 291 292 293 293 293 291 290 290 289 290 291 290 290 291

GFSMA_925_thetae_144.txt.gz
Theta_e
329 330 334 336 335 335 334 330 328 327 327 327 327 326 326 326 324 324 324 325 325 325 325 325 325 324 324 324 324 323 323 323 322 322 322 322 321 321 321 320 320 320 321
320 324 325 334 335 335 331 327 326 326 326 326 325 326 326 324 323 324 323 324 324 325 325 325 324 324 324 323 323 322 322 321 321 321 321 321 320 320 320 320 320 320 319
324 326 325 334 334 328 326 325 325 326 324 324 325 325 325 324 324 323 323 323 323 323 324 324 323 323 323 322 321 321 321 320 320 320 319 319 319 319 318 318 318 318 318
325 322 322 332 333 327 325 324 325 324 323 324 324 324 324 324 324 323 322 321 322 321 322 322 322 322 321 321 321 320 320 319 319 319 318 318 318 317 317 317 316 316 316
325 322 327 332 332 326 323 322 324 323 324 323 323 323 323 323 323 322 322 321 321 320 320 320 320 320 321 320 320 319 319 318 318 318 317 317 317 316 315 315 315 314 313
325 329 331 332 331 325 323 322 324 323 323 322 322 322 321 321 321 322 322 322 320 317 316 316 316 318 319 319 319 318 318 317 317 316 316 316 316 315 315 314 313 312 311
331 333 331 332 328 325 322 322 323 323 322 322 321 320 319 319 319 319 320 320 320 319 319 319 316 312 310 315 317 317 317 316 315 315 315 315 314 314 314 313 312 311 310
332 332 331 330 326 325 323 322 322 323 322 321 320 319 315 317 318 317 317 317 317 317 317 316 317 315 314 313 307 309 314 314 313 313 313 312 313 313 312 312 311 310 309
333 331 330 328 326 325 324 322 322 322 320 320 319 317 315 315 316 316 316 316 315 315 315 314 315 314 313 313 311 309 307 308 310 310 310 310 310 311 311 311 310 309 308
329 329 328 327 326 325 325 323 322 321 319 319 318 318 317 317 313 313 315 315 313 313 313 313 311 313 313 313 312 311 310 307 305 305 306 308 308 309 310 309 309 307 307
326 326 325 325 326 325 325 323 323 322 320 319 319 317 316 316 316 314 312 314 314 313 313 312 312 312 312 313 313 312 312 311 308 306 305 305 307 308 308 308 307 306 306
323 324 324 324 325 325 325 324 323 322 321 320 319 318 316 314 314 314 312 313 313 312 312 311 311 311 310 310 309 310 310 309 307 307 306 305 306 307 307 306 305 305 305
322 322 322 322 323 324 325 325 324 324 323 322 320 319 316 316 315 314 315 313 311 309 309 307 307 308 308 308 308 308 308 307 306 306 308 307 306 304 304 304 304 304 304
320 318 320 319 320 320 322 325 325 325 324 323 322 320 317 316 315 314 314 313 309 311 309 308 307 307 306 306 306 307 306 305 305 307 307 306 302 301 303 303 303 303 303
323 320 318 317 317 316 319 321 322 322 322 322 320 318 316 315 314 313 313 313 312 311 310 306 308 307 306 305 304 304 303 301 300 299 299 298 298 299 301 302 302 302 302
323 321 319 318 317 314 313 316 318 319 319 319 318 317 315 313 311 311 311 311 311 311 311 308 307 304 302 301 300 300 300 300 300 300 299 298 297 299 299 300 300 299 299
317 318 317 316 316 316 315 314 313 315 316 315 315 316 312 310 310 311 311 311 311 311 311 308 305 302 300 299 300 300 299 299 298 298 298 297 297 297 298 298 299 299 299
314 313 314 314 314 315 315 312 312 313 313 312 312 310 310 310 311 311 311 311 311 310 307 302 301 299 299 300 300 298 299 298 296 296 296 296 296 297 297 297 298 297 297
313 312 312 312 312 311 310 310 310 310 310 310 310 310 310 311 311 311 310 307 303 301 301 301 299 299 299 299 298 298 296 296 296 296 297 297 297 297 297 297 297 297 296
311 310 310 310 310 310 310 310 310 310 310 310 310 311 310 310 308 305 302 300 299 299 300 300 300 299 299 299 297 296 296 296 297 297 297 297 298 297 297 297 296 296 295
309 309 309 309 309 309 309 309 310 309 309 307 306 305 304 303 302 301 301 299 298 298 299 299 299 298 297 297 296 296 296 296 297 297 297 296 295 295 295 295 295 294 294
307 307 305 305 305 306 306 307 307 306 305 304 302 301 301 301 301 301 300 300 299 299 299 298 297 297 297 296 295 295 295 295 296 296 295 294 295 294 294 294 294 294 293
303 303 304 304 302 302 302 301 301 301 301 301 301 301 301 301 300 300 300 299 297 296 296 296 296 296 295 294 294 294 293 294 294 295 294 293 293 293 293 293 293 293 292
302 301 300 300 301 301 301 301 300 300 300 300 300 299 299 300 300 300 300 298 296 296 296 295 295 294 294 293 293 293 293 293 294 294 293 293 293 292 292 292 292 292 292
301 300 300 298 298 298 298 298 297 297 297 297 297 297 297 296 296 297 296 296 295 295 295 294 293 292 292 291 291 291 292 292 293 293 291 291 291 289 290 291 291 290 290
299 299 298 297 295 294 294 295 295 295 295 294 294 294 295 296 295 294 294 297 296 295 295 294 293 292 292 291 291 291 291 292 291 291 290 290 289 289 288 289 290 289 289

GFSMA_925_thetae_147.txt.gz
Theta_e
328 325 332 334 335 332 332 334 331 332 330 328 326 325 324 324 323 324 324 325 326 326 326 326 326 325 325 324 324 324 324 323 323 323 322 322 322 322 322 321 321 321 321
326 322 331 333 334 334 333 331 327 328 326 326 326 324 323 323 323 323 323 324 324 325 326 326 325 325 324 324 323 323 322 322 322 321 321 321 320 320 320 320 320 320 320
327 327 322 328 333 334 333 326 326 325 324 325 326 324 322 323 323 323 323 324 324 324 325 325 324 324 323 323 322 322 322 321 321 320 320 320 319 319 318 318 317 317 318
319 322 324 326 331 328 324 325 325 324 325 325 324 323 322 322 322 322 322 323 322 323 323 323 323 323 323 322 321 321 321 320 320 319 319 318 318 317 317 316 315 314 314
323 324 326 325 331 327 325 325 324 324 324 324 324 324 323 322 321 321 321 321 321 321 321 321 322 322 322 321 321 320 320 319 319 319 318 317 317 316 316 315 314 313 312
331 326 321 326 332 326 324 324 323 324 323 323 323 324 323 323 322 321 320 320 318 318 318 318 320 320 321 320 320 320 319 318 318 317 317 316 316 316 315 314 313 312 311
333 328 325 326 330 325 323 323 323 323 322 322 321 321 321 322 322 321 321 320 316 317 316 316 314 316 319 319 319 319 318 317 316 316 316 315 315 314 314 313 312 311 310
332 329 326 328 331 324 322 324 323 322 321 321 319 318 315 317 320 321 321 320 319 318 318 317 314 313 312 310 312 315 316 315 314 314 313 313 313 313 313 312 311 310 309
335 331 330 331 331 323 322 323 323 322 320 320 320 317 313 314 315 319 318 317 317 318 317 317 316 314 313 312 310 308 308 310 312 312 311 311 311 312 311 311 310 309 308
332 333 332 331 325 322 322 323 322 322 321 319 318 317 317 316 312 313 315 316 315 316 314 313 312 313 313 312 312 311 310 309 307 307 308 309 309 310 310 310 309 308 307
332 332 330 330 325 323 322 322 322 321 320 319 317 317 315 316 315 312 311 311 312 312 312 312 312 312 312 312 312 312 311 311 309 306 305 306 308 308 309 308 308 307 307
329 327 326 326 325 324 322 321 321 321 320 319 319 317 315 314 314 314 310 310 311 310 312 312 311 311 311 311 311 311 311 310 309 308 306 306 307 308 307 306 306 306 306
325 323 325 325 325 325 323 321 321 320 319 319 320 317 316 315 314 314 313 311 309 309 310 311 311 310 309 308 308 308 307 307 307 306 309 307 307 305 304 305 305 305 304
324 323 325 325 325 325 325 320 322 321 320 319 321 319 317 316 314 314 314 313 307 308 308 307 307 307 307 307 307 307 307 306 306 307 308 306 304 301 303 303 303 303 303
321 322 323 324 324 324 324 324 323 323 323 321 322 319 316 315 315 314 314 313 312 310 308 307 307 307 307 306 305 305 305 303 301 299 299 299 299 299 301 301 302 302 301
319 320 319 318 319 320 321 323 323 322 322 319 317 315 314 313 313 313 312 312 312 311 308 309 307 308 306 304 302 301 300 300 300 299 299 298 297 298 299 299 299 299 300
319 319 319 320 319 314 316 319 319 318 319 317 315 314 312 312 312 311 311 311 311 312 311 309 308 307 303 300 299 300 300 299 299 298 298 298 297 297 298 298 298 298 298
317 318 318 317 317 314 313 316 317 316 315 314 315 316 312 310 311 311 311 311 311 311 311 308 305 302 300 299 299 299 299 299 297 295 296 297 297 297 297 298 298 298 297
315 315 315 316 316 316 315 315 314 315 315 314 314 314 313 312 311 310 311 311 310 306 305 304 300 299 299 299 299 298 296 295 296 296 297 297 297 297 298 298 298 297 296
312 312 312 312 313 313 313 313 312 312 311 311 310 309 310 310 310 310 306 303 301 300 300 300 299 299 299 299 298 296 296 296 296 297 297 297 297 296 296 296 296 295 294
311 311 310 310 310 311 311 311 311 310 310 310 310 309 308 306 305 302 301 300 299 299 298 299 298 298 298 297 296 296 296 296 296 296 296 296 294 295 294 294 294 294 294
309 309 308 308 308 308 308 309 309 307 306 304 303 302 303 303 302 300 300 299 299 299 298 298 297 297 295 295 295 295 294 294 294 295 294 294 294 294 293 293 293 294 293
306 306 306 307 306 305 306 305 305 304 303 302 301 302 301 301 302 302 301 300 298 297 297 296 296 295 294 294 294 293 293 293 293 293 293 293 293 293 292 292 292 293 293
305 304 303 303 303 304 303 301 301 301 301 301 301 301 301 301 300 300 298 297 295 295 295 295 294 293 293 293 293 293 293 292 293 292 292 292 291 291 290 292 293 292 291
301 301 302 302 302 302 301 300 300 300 299 298 298 299 299 298 298 297 297 296 296 296 296 294 293 293 292 291 291 290 291 292 292 291 291 291 289 289 289 290 290 289 289
300 298 298 298 298 297 298 296 296 297 296 296 295 296 295 295 295 295 294 296 295 295 295 294 293 292 291 291 291 291 291 291 291 290 290 290 289 289 288 288 289 289 288

GFSMA_925_thetae_150.txt.gz
Theta_e
332 333 333 333 334 334 333 333 332 330 327 325 324 323 324 323 323 324 325 325 326 327 326 326 326 326 325 325 325 325 324 324 324 323 323 323 323 322 322 322 322 322 322
330 326 326 327 331 333 333 333 331 331 327 325 324 324 323 323 323 324 324 324 325 326 326 326 326 325 325 324 324 323 323 323 322 322 322 321 321 320 319 319 319 320 320
330 326 325 327 328 333 332 331 330 327 326 324 323 323 323 323 323 323 324 324 324 325 326 325 325 324 324 323 323 322 322 322 321 321 320 320 319 318 317 316 316 316 317
330 325 326 328 331 328 332 331 324 325 325 324 323 323 323 323 323 323 324 324 323 324 324 324 324 324 323 323 322 322 321 321 320 320 319 319 318 317 316 316 315 314 314
328 326 325 327 329 329 331 328 322 325 324 323 323 323 322 323 322 323 323 322 322 323 323 323 323 323 323 322 321 321 320 320 319 319 318 318 317 316 316 315 314 313 313
327 322 324 326 325 327 327 325 321 324 324 323 322 322 322 322 322 321 321 321 321 321 320 321 321 321 322 321 321 320 320 319 318 318 317 317 316 316 315 314 313 312 312
325 326 326 326 330 328 326 325 321 324 322 322 321 321 322 321 320 319 319 319 319 318 318 319 319 320 320 320 320 320 319 318 318 317 316 316 315 315 314 313 312 312 311
332 332 324 325 329 327 326 324 321 320 320 322 321 319 316 318 320 320 320 317 316 316 317 316 315 315 315 318 318 318 317 316 316 315 314 314 314 314 313 312 311 311 310
332 331 329 324 329 327 326 324 322 321 319 320 321 319 314 318 316 319 321 318 317 317 317 315 312 312 312 310 310 310 311 313 314 313 312 312 312 312 312 311 310 310 309
332 332 330 328 327 326 324 323 321 321 319 317 318 318 318 317 313 313 317 318 318 317 317 317 314 313 312 311 310 310 310 308 308 310 310 310 310 310 310 310 309 309 308
330 333 332 331 328 324 322 322 322 321 321 318 319 317 315 317 315 312 311 310 312 313 314 316 314 313 313 311 311 310 310 309 308 307 306 307 308 309 309 309 308 308 308
327 329 331 332 329 323 321 322 321 321 320 319 319 318 315 315 313 313 309 309 310 310 310 310 311 312 312 312 311 311 311 310 309 308 307 306 307 308 308 307 307 307 306
326 328 330 327 326 322 321 321 321 320 320 319 318 317 316 315 315 314 312 309 308 308 309 309 310 310 309 308 308 308 308 307 307 307 310 307 307 305 305 305 305 305 305
324 326 328 326 323 322 322 322 322 321 320 320 319 318 317 314 315 315 313 311 306 307 308 308 309 308 307 307 307 306 307 307 307 308 308 307 305 301 302 303 303 303 303
323 323 324 324 323 322 321 321 321 321 319 319 319 319 316 315 314 314 314 313 312 307 306 307 307 306 307 307 307 307 306 304 302 302 301 299 299 299 299 301 301 301 301
320 323 324 324 324 323 322 320 322 321 320 320 319 318 315 315 314 313 313 312 312 311 308 308 307 307 307 306 304 304 302 300 300 300 299 299 298 297 299 299 300 300 300
317 322 323 324 324 324 323 322 322 322 322 322 319 320 314 312 312 312 311 311 311 311 311 309 308 308 307 302 300 300 300 300 299 298 299 298 297 297 297 298 298 298 298
318 320 319 320 321 321 321 320 320 319 321 320 314 311 310 311 311 311 312 311 311 311 311 310 306 303 301 299 299 299 299 299 298 296 296 298 298 297 297 298 298 298 297
317 318 318 316 314 315 315 315 317 315 312 311 312 313 313 313 313 312 311 310 310 309 308 306 301 299 299 299 299 298 298 296 296 296 297 298 298 298 298 297 297 297 295
313 315 315 315 314 313 313 314 315 315 315 315 314 313 312 311 311 310 309 306 304 302 302 301 300 299 299 299 298 297 296 296 296 296 296 297 297 296 295 296 295 294 294
312 312 313 313 314 314 314 314 314 314 313 312 310 310 310 309 309 307 304 301 300 300 300 299 299 298 297 297 296 296 295 295 295 295 295 295 295 294 294 294 294 294 294
310 311 311 311 311 311 311 311 311 311 310 310 309 305 304 303 303 301 300 299 299 299 298 298 297 297 295 295 295 295 294 294 294 294 294 294 293 293 293 293 292 294 293
309 308 307 308 308 308 309 309 308 307 305 304 303 303 302 302 302 303 302 300 299 298 297 297 296 295 295 294 294 294 293 293 292 293 293 293 292 292 291 291 292 293 293
307 306 306 306 306 305 306 305 305 303 302 302 302 301 301 301 301 300 298 296 296 295 294 294 294 294 293 293 292 293 293 292 292 291 292 291 291 291 290 293 291 291 290
304 304 304 304 304 304 302 302 302 301 301 301 300 301 300 300 300 299 298 297 295 295 295 294 293 293 293 292 291 290 291 291 291 290 290 290 289 289 289 290 290 289 288
303 303 303 302 302 301 301 301 301 300 298 297 297 297 297 297 297 296 295 295 296 296 295 295 293 292 292 291 291 290 290 290 290 289 290 290 289 289 288 288 288 288 288